Location: Doverdale
(52.2833°N, 2.2000°W)
Time: 12:22:03
(UTC+00:00)

Cosmos 1689 Rocket - Pass Details

Date: 29 October 2020
Orbit: 360 x 375 km, 97.5° (Epoch: 25 November)

Event Time Altitude Azimuth Distance (km) Brightness Sun altitude
Exits shadow 18:19:53 17° 24° (NNE) 1,023 3.9 -15.0°
Maximum altitude 18:21:57 60° 102° (ESE) 421 1.9 -15.3°
Drops below altitude 10° 18:24:47 10° 184° (S) 1,345 4.9 -15.8°
Sets 18:26:43 0° 188° (S) 2,187 6.0 -16.1°
